Kezdőlap
METAR-TAF:

METAR-TAF

Repülőterek :

Galesburg Municipal Airport

Galesburg, Illinois, Amerikai Egyesült Államok

földrajzi szélesség: 40-56-17N, földrajzi hosszúság: 090-25-52W, magasság: 233 m

Jelenlegi meteorológiai megfigyelések

A jelentés 24 perccel ezelõtt készült, 12:55 UTC
Északnyugati szél 3 kt
Hőmérséklet -1°C
Páratartalom 100%
Légköri nyomás 1026 hPa
Látótávolság: 4.8 km
Derült ég
Párásság

METAR: KGBG 041255Z AUTO 31003KT 3SM BR CLR M01/M01 A3030 RMK AO2 T10141014

Idő: 07:19 (13:19 UTC)


TAF: hiányzik

Meteorológiai megfigyelések és előrejelzések több, mint 4000 repülőtéren (METAR és TAF jelentéseket).

A térképen piros és sárga pontok jelzik az elérhető meteorológiai állomásokat.

Mozgassa az egeret a pont fölött, hogy megjelenjen az állomás neve.

Azután kattintson az időjárási megfigyelések és előrejelzések megtekintéséhez.

A térkép megváltoztatása: kattintson a fekete keresztel jelölt zöld gombra ráközelítéshez, a vonallal jelölt zöld gombra távolításhoz, vagy a zöld nyilakra a szomszédos térképek eléréséhez.


METAR-TAF: